FLOCK 4BE-9

Last updated on Mon Sep 16 2024 00:02:03 GMT+0000 (Coordinated Universal Time)

1 60514U 24149AY 24258.88721913 .00018125 00000+0 86150-3 0 9995 2 60514 97.4426 334.0321 0005138 62.3187 297.8569 15.19248719 4412
UTC large
Height (km)
Speed (km/s)
/
Latitude / Longitude
Inclination (degrees)
Orbital Period (minutes)
Azimuth
Elevation
Range (km)
Doppler Factor

Next 0 passes for location: London (51.5072 / 0.1276)

Sorry there are no passes over London.